Simultaneous Nadir Overpasses (SNOs) Predictions

Prediction of SNOs between GOES-15 and METOP-A Satellite Orbit:

Table of predicted SNOs for the next 14.0 days since TLE Epoch: 2/2/2013
Index Date Time (GOES-15) GOES-15 Lat,Lon METOP-A Lat,Lon Distance(km) Time Diff (sec)
1 02/03/2013 06:46:28 -0.04,-134.61 -1.00,-138.87 485.09 80
2 02/04/2013 06:23:09 -0.03,-134.65 0.17,-133.88 88.53 80
3 02/05/2013 18:41:58 0.04,-134.71 0.86,-138.44 425.26 80
4 02/06/2013 18:23:57 0.03,-134.75 -0.26,-133.44 148.61 80
5 02/08/2013 06:42:56 -0.04,-134.82 -0.77,-138.04 366.54 80
6 02/09/2013 06:19:35 -0.04,-134.86 0.38,-133.05 206.87 80
7 02/10/2013 18:38:24 0.05,-134.90 0.66,-137.59 307.44 80
8 02/11/2013 18:20:23 0.04,-134.94 -0.50,-132.61 266.50 80
9 02/13/2013 06:39:20 -0.05,-135.01 -0.54,-137.19 248.32 80
10 02/14/2013 06:15:59 -0.04,-135.05 0.59,-132.19 324.98 80
11 02/15/2013 18:34:47 0.04,-135.08 0.40,-136.75 190.19 80




NCC Satellite Simultaneous Nadir Overpasses (SNOs) Prediction Service
